Showing default

COSMOS 2588, 64095

Orbit data source: Space-Track

COSMOS 2588, 64095 is a payload satellite owned by TS VS RF (CIS) in LEO that was launched on Fri, 23 May 2025 UTC via a SOYUZ-2-1B launch vehicle from the Plesetsk Missile And Space Complex (PKMTR). Payload-class satellites include a variety of spacecraft equipped with specific instruments for various scientific and technological missions. These include communications satellites like Starlink; space stations such as the ISS; scientific satellites like the Hubble; Earth observation satellites from companies like Planet Labs, Umbra, and HawkEye 360; GPS; miniature CubeSats for education and research; and military/defense satellites.

Loading next visibility...
Identifier
64095, 2025-109A
Orbit
LEO
Last TLE update
14 hours ago
Origin
Manufacturer
Lavochkin
Mission
Operational Defense Imaging
Bus & Motor
KARAT-200, Unknown motor
Mass
~500 kg wet, ~500 kg dry
Launch date (UTC)
2025-05-23 (2 months ago)
Launch vehicle
SOYUZ-2-1B
Launch site
Plesetsk Missile And Space Complex (PKMTR)
Object type
Payload
Rocket body
Debris
Shape & HBR
Cyl + 2 Pan, 1.5 m
Radar Cross Section
3.727 m², Large (>1 m²)

Expand to show TLE details & history

TLE from 14 hours ago
0 COSMOS 2588
1 64095U 25109A   25210.91816958  .00005527  00000-0  18915-3 0  9994
2 64095  72.9702 218.3961 0005867 140.6661 219.4963 15.30566495 10349
Epoch: 2025-07-29T22:02Z
TLE epoch observation values (Epoch: 2025-07-29T22:02:09.851Z)
Latitude
0.00001°
Longitude
-59.9498°
Altitude
479.884 km
Speed
7.624 km/s
True Right ascension
14h 33m 35s
True Declination
0° 00' 00"
Sunlit
Object was in daylight at epoch
Visualization orbit readout
Latitude
-50.8233°
Longitude
140.7185°
Altitude
493.752 km
Speed
7.617 km/s
Apparent Right ascension
09h 08m 08s
Apparent Declination
-70° 24' 39"
Sunlit
Object is in daylight
Visualization observer readout
Local Sidereal Time
01:09:11
Azimuth
154.7° SSE
Elevation
-47.06°
Doppler factor
1
Orbital elements
Apogee altitude
475.758 km
Perigee altitude
467.72 km
Semi-major axis
6,849.876 km
Eccentricity
0.00059
Inclination
72.9702°
RAAN
218.3961°
Arg. of periapsis
140.6661°
True anomaly
219.45356°
Mean anomaly
219.4963°
Eccentric anomaly
219.47493°
Mean motion
3.82842 °/min
Orbital period
94.03 mins
BSTAR
0.00018915
Loading maneuver chart data...
Loading SW <> Apogee altitude chart data...
Loading historical data...
Loading historical data...
Loading historical data...
Loading historical data...
Loading historical data...
Loading historical data...
Loading historical data...
Other satellites on launch #109 in the year 2025 (2025-05-23 UTC)
|